Tracking 29892 objects as of 21-Nov-2024
HD Live streaming from Space Station
objects crossing your sky now

STARLINK-5665

Track STARLINK-5665 now!
10-day predictions
STARLINK-5665 is classified as:


NORAD ID: 55361
Int'l Code: 2023-013AG
Perigee: 565.1 km
Apogee: 567.3 km
Inclination: 43.0 °
Period: 95.8 minutes
Semi major axis: 6937 km
RCS: Unknown
Launch date: January 26, 2023
Source: United States (US)
Launch site: AIR FORCE EASTERN TEST RANGE (AFETR)
Your satellite tracking list
Your tracking list is empty




NASA's NSSDC Master Catalog

Two Line Element Set (TLE):
1 55361U 23013AG  24325.45871550  .00000590  00000-0  58752-4 0  9995
2 55361  43.0042 344.0881 0001546 269.7116  90.3549 15.02537795100523
Source of the keplerian elements: AFSPC